Location: Newark
(50.0953°N, 2.1719°E)
Time: 00:32:01
(UTC+00:00)

N. Korean satellite - Pass Details

Date: 28 January 2020
Orbit: 456 x 505 km, 97.2° (Epoch: 24 February)

Event Time Altitude Azimuth Distance (km) Brightness Sun altitude
Rises 04:25:30 0° 34° (NE) 2,550 10.8 -29.7°
Reaches altitude 10° 04:29:18 10° 76° (ENE) 1,677 10.2 -29.1°
Maximum altitude 04:30:02 11° 88° (E) 1,648 10.2 -29.0°
Drops below altitude 10° 04:30:46 10° 99° (E) 1,680 10.2 -28.9°
Sets 04:34:35 0° 141° (SE) 2,567 10.7 -28.2°
